Time,TemperatureF,DewpointF,PressureIn,WindDirection,WindDirectionDegrees,WindSpeedMPH,WindSpeedGustMPH,Humidity,HourlyPrecipIn,Conditions,Clouds,dailyrainin,SolarRadiationWatts/m^2,SoftwareType,DateUTC
2013-04-07 00:02:00,43.0,42.0,-100.00,ESE,102,0.0,3.0,97,0.04,,,0.86,1.000000,,2013-04-07 07:02:00,
2013-04-07 00:33:00,43.0,42.0,-100.00,SE,132,1.0,4.0,97,0.04,,,0.89,1.000000,,2013-04-07 07:33:00,
2013-04-07 00:42:00,43.0,42.0,-100.00,SE,132,1.0,4.0,97,0.04,,,0.89,1.000000,,2013-04-07 07:42:00,
2013-04-07 00:52:00,43.0,42.0,-100.00,SE,132,1.0,4.0,97,0.04,,,0.89,1.000000,,2013-04-07 07:52:00,
2013-04-07 01:02:00,43.0,42.0,-100.00,SE,132,1.0,4.0,97,0.04,,,0.89,1.000000,,2013-04-07 08:02:00,
2013-04-07 01:33:00,42.0,41.0,-100.00,WSW,240,3.0,5.0,96,0.07,,,0.95,1.000000,,2013-04-07 08:33:00,
2013-04-07 01:43:00,42.0,41.0,-100.00,WSW,240,3.0,5.0,96,0.07,,,0.95,1.000000,,2013-04-07 08:43:00,
2013-04-07 01:53:00,42.0,41.0,-100.00,WSW,240,3.0,5.0,96,0.07,,,0.95,1.000000,,2013-04-07 08:53:00,
2013-04-07 02:02:00,42.0,41.0,-100.00,WSW,240,3.0,5.0,96,0.07,,,0.95,1.000000,,2013-04-07 09:02:00,
2013-04-07 02:34:00,42.0,41.0,-100.00,SSW,204,0.0,5.0,97,0.07,,,1.00,1.000000,,2013-04-07 09:34:00,
2013-04-07 02:44:00,42.0,41.0,-100.00,SSW,204,0.0,5.0,97,0.07,,,1.00,1.000000,,2013-04-07 09:44:00,
2013-04-07 02:53:00,42.0,41.0,-100.00,SSW,204,0.0,5.0,97,0.07,,,1.00,1.000000,,2013-04-07 09:53:00,
2013-04-07 03:03:00,42.0,41.0,-100.00,SSW,204,0.0,5.0,97,0.07,,,1.00,1.000000,,2013-04-07 10:03:00,
2013-04-07 03:34:00,42.0,41.0,-100.00,East,79,3.0,5.0,98,0.05,,,1.05,1.000000,,2013-04-07 10:34:00,
2013-04-07 03:43:00,42.0,41.0,-100.00,East,79,3.0,5.0,98,0.05,,,1.05,1.000000,,2013-04-07 10:43:00,
2013-04-07 03:53:00,42.0,41.0,-100.00,East,79,3.0,5.0,98,0.05,,,1.05,1.000000,,2013-04-07 10:53:00,
2013-04-07 04:02:00,42.0,41.0,-100.00,East,79,3.0,5.0,98,0.05,,,1.05,1.000000,,2013-04-07 11:02:00,
2013-04-07 04:33:00,42.0,41.0,-100.00,WSW,246,2.0,7.0,97,0.02,,,1.07,1.000000,,2013-04-07 11:33:00,
2013-04-07 04:43:00,42.0,41.0,-100.00,WSW,246,2.0,7.0,97,0.02,,,1.07,1.000000,,2013-04-07 11:43:00,
2013-04-07 04:53:00,42.0,41.0,-100.00,WSW,246,2.0,7.0,97,0.02,,,1.07,1.000000,,2013-04-07 11:53:00,
2013-04-07 05:02:00,42.0,41.0,-100.00,WSW,246,2.0,7.0,97,0.02,,,1.07,1.000000,,2013-04-07 12:02:00,
2013-04-07 05:34:00,42.0,41.0,-100.00,South,179,4.0,8.0,95,0.03,,,1.10,1.000000,,2013-04-07 12:34:00,
2013-04-07 05:43:00,42.0,41.0,-100.00,South,179,4.0,8.0,95,0.03,,,1.10,1.000000,,2013-04-07 12:43:00,
2013-04-07 05:53:00,42.0,41.0,-100.00,South,179,4.0,8.0,95,0.03,,,1.10,1.000000,,2013-04-07 12:53:00,
2013-04-07 06:02:00,42.0,41.0,-100.00,South,179,4.0,8.0,95,0.03,,,1.10,1.000000,,2013-04-07 13:02:00,
2013-04-07 06:33:00,44.0,43.0,-100.00,East,85,3.0,15.0,97,0.03,,,1.13,1.000000,,2013-04-07 13:33:00,
2013-04-07 06:43:00,44.0,43.0,-100.00,East,85,3.0,15.0,97,0.03,,,1.13,1.000000,,2013-04-07 13:43:00,
2013-04-07 06:52:00,44.0,43.0,-100.00,East,85,3.0,15.0,97,0.03,,,1.13,1.000000,,2013-04-07 13:52:00,
2013-04-07 07:02:00,44.0,43.0,-100.00,East,85,3.0,15.0,97,0.03,,,1.13,1.000000,,2013-04-07 14:02:00,
2013-04-07 07:33:00,49.0,43.0,-100.00,WSW,237,11.0,30.0,81,0.00,,,1.12,3.000000,,2013-04-07 14:33:00,
2013-04-07 07:44:00,49.0,43.0,-100.00,WSW,237,11.0,30.0,81,0.00,,,1.12,3.000000,,2013-04-07 14:44:00,
2013-04-07 07:53:00,49.0,43.0,-100.00,WSW,237,11.0,30.0,81,0.00,,,1.12,3.000000,,2013-04-07 14:53:00,
2013-04-07 08:02:00,49.0,43.0,-100.00,WSW,237,11.0,30.0,81,0.00,,,1.12,3.000000,,2013-04-07 15:02:00,
2013-04-07 08:35:00,49.0,37.0,-100.00,WSW,253,12.0,31.0,64,0.00,,,1.12,31.000000,,2013-04-07 15:35:00,
2013-04-07 08:45:00,49.0,37.0,-100.00,WSW,253,12.0,31.0,64,0.00,,,1.12,31.000000,,2013-04-07 15:45:00,
2013-04-07 08:54:00,49.0,37.0,-100.00,WSW,253,12.0,31.0,64,0.00,,,1.12,31.000000,,2013-04-07 15:54:00,
2013-04-07 09:03:00,49.0,37.0,-100.00,WSW,253,12.0,31.0,64,0.00,,,1.12,31.000000,,2013-04-07 16:03:00,
2013-04-07 09:34:00,46.0,40.0,-100.00,WSW,237,10.0,26.0,79,0.05,,,1.09,60.000000,,2013-04-07 16:34:00,
2013-04-07 09:43:00,46.0,40.0,-100.00,WSW,237,10.0,26.0,79,0.05,,,1.09,60.000000,,2013-04-07 16:43:00,
2013-04-07 09:54:00,46.0,40.0,-100.00,WSW,237,10.0,26.0,79,0.05,,,1.09,60.000000,,2013-04-07 16:54:00,
2013-04-07 10:03:00,46.0,40.0,-100.00,WSW,237,10.0,26.0,79,0.05,,,1.09,60.000000,,2013-04-07 17:03:00,
2013-04-07 10:33:00,48.0,40.0,-100.00,WSW,252,6.0,30.0,75,0.03,,,1.08,145.000000,,2013-04-07 17:33:00,
2013-04-07 10:43:00,48.0,40.0,-100.00,WSW,252,6.0,30.0,75,0.03,,,1.08,145.000000,,2013-04-07 17:43:00,
2013-04-07 10:53:00,48.0,40.0,-100.00,WSW,252,6.0,30.0,75,0.03,,,1.08,145.000000,,2013-04-07 17:53:00,
2013-04-07 11:02:00,48.0,40.0,-100.00,WSW,252,6.0,30.0,75,0.03,,,1.08,145.000000,,2013-04-07 18:02:00,
2013-04-07 11:33:00,46.0,43.0,-100.00,WSW,252,5.0,20.0,89,0.05,,,1.10,137.000000,,2013-04-07 18:33:00,
2013-04-07 11:43:00,46.0,43.0,-100.00,WSW,252,5.0,20.0,89,0.05,,,1.10,137.000000,,2013-04-07 18:43:00,
2013-04-07 11:52:00,46.0,43.0,-100.00,WSW,252,5.0,20.0,89,0.05,,,1.10,137.000000,,2013-04-07 18:52:00,
2013-04-07 12:02:00,46.0,43.0,-100.00,WSW,252,5.0,20.0,89,0.05,,,1.10,137.000000,,2013-04-07 19:02:00,
2013-04-07 12:33:00,45.0,43.0,-100.00,SW,234,4.0,16.0,92,0.05,,,1.05,96.000000,,2013-04-07 19:33:00,
2013-04-07 12:43:00,45.0,43.0,-100.00,SW,234,4.0,16.0,92,0.05,,,1.05,96.000000,,2013-04-07 19:43:00,
2013-04-07 12:53:00,45.0,43.0,-100.00,SW,234,4.0,16.0,92,0.05,,,1.05,96.000000,,2013-04-07 19:53:00,
2013-04-07 13:02:00,45.0,43.0,-100.00,SW,234,4.0,16.0,92,0.05,,,1.05,96.000000,,2013-04-07 20:02:00,
2013-04-07 13:33:00,47.0,43.0,-100.00,West,266,6.0,19.0,86,0.04,,,1.05,199.000000,,2013-04-07 20:33:00,
2013-04-07 13:44:00,47.0,43.0,-100.00,West,266,6.0,19.0,86,0.04,,,1.05,199.000000,,2013-04-07 20:44:00,
2013-04-07 13:53:00,47.0,43.0,-100.00,West,266,6.0,19.0,86,0.04,,,1.05,199.000000,,2013-04-07 20:53:00,
2013-04-07 14:02:00,47.0,43.0,-100.00,West,266,6.0,19.0,86,0.04,,,1.05,199.000000,,2013-04-07 21:02:00,
2013-04-07 14:35:00,49.0,42.0,-100.00,West,264,6.0,15.0,76,0.00,,,0.99,185.000000,,2013-04-07 21:35:00,
2013-04-07 14:45:00,49.0,42.0,-100.00,West,264,6.0,15.0,76,0.00,,,0.99,185.000000,,2013-04-07 21:45:00,
2013-04-07 14:54:00,49.0,42.0,-100.00,West,264,6.0,15.0,76,0.00,,,0.99,185.000000,,2013-04-07 21:54:00,
2013-04-07 15:03:00,49.0,42.0,-100.00,West,264,6.0,15.0,76,0.00,,,0.99,185.000000,,2013-04-07 22:03:00,
2013-04-07 15:34:00,45.0,43.0,-100.00,SW,221,5.0,13.0,94,0.08,,,1.06,93.000000,,2013-04-07 22:34:00,
2013-04-07 15:44:00,45.0,43.0,-100.00,SW,221,5.0,13.0,94,0.08,,,1.06,93.000000,,2013-04-07 22:44:00,
2013-04-07 15:53:00,45.0,43.0,-100.00,SW,221,5.0,13.0,94,0.08,,,1.06,93.000000,,2013-04-07 22:53:00,
2013-04-07 16:02:00,45.0,43.0,-100.00,SW,221,5.0,13.0,94,0.08,,,1.06,93.000000,,2013-04-07 23:02:00,
2013-04-07 16:33:00,48.0,41.0,-100.00,WSW,239,5.0,19.0,77,0.03,,,1.09,211.000000,,2013-04-07 23:33:00,
2013-04-07 16:43:00,48.0,41.0,-100.00,WSW,239,5.0,19.0,77,0.03,,,1.09,211.000000,,2013-04-07 23:43:00,
2013-04-07 16:52:00,48.0,41.0,-100.00,WSW,239,5.0,19.0,77,0.03,,,1.09,211.000000,,2013-04-07 23:52:00,
2013-04-07 17:02:00,48.0,41.0,-100.00,WSW,239,5.0,19.0,77,0.03,,,1.09,211.000000,,2013-04-08 00:02:00,
2013-04-07 17:33:00,46.0,43.0,-100.00,SW,219,5.0,11.0,88,0.02,,,1.04,166.000000,,2013-04-08 00:33:00,
2013-04-07 17:42:00,46.0,43.0,-100.00,SW,219,5.0,11.0,88,0.02,,,1.04,166.000000,,2013-04-08 00:42:00,
2013-04-07 17:52:00,46.0,43.0,-100.00,SW,219,5.0,11.0,88,0.02,,,1.04,166.000000,,2013-04-08 00:52:00,
2013-04-07 18:02:00,46.0,43.0,-100.00,SW,219,5.0,11.0,88,0.02,,,1.04,166.000000,,2013-04-08 01:02:00,
2013-04-07 18:34:00,45.0,43.0,-100.00,SW,219,2.0,10.0,94,0.05,,,1.00,85.000000,,2013-04-08 01:34:00,
2013-04-07 18:44:00,45.0,43.0,-100.00,SW,219,2.0,10.0,94,0.05,,,1.00,85.000000,,2013-04-08 01:44:00,
2013-04-07 18:55:00,45.0,43.0,-100.00,SW,219,2.0,10.0,94,0.05,,,1.00,85.000000,,2013-04-08 01:55:00,
2013-04-07 19:02:00,45.0,43.0,-100.00,SW,219,2.0,10.0,94,0.05,,,1.00,85.000000,,2013-04-08 02:02:00,
2013-04-07 19:33:00,44.0,43.0,-100.00,SW,228,2.0,9.0,95,0.12,,,1.02,10.000000,,2013-04-08 02:33:00,
2013-04-07 19:48:00,44.0,43.0,-100.00,SW,228,2.0,9.0,95,0.12,,,1.02,10.000000,,2013-04-08 02:48:00,
2013-04-07 19:53:00,44.0,43.0,-100.00,SW,228,2.0,9.0,95,0.12,,,1.02,10.000000,,2013-04-08 02:53:00,
2013-04-07 20:05:00,44.0,43.0,-100.00,SW,228,2.0,9.0,95,0.12,,,1.02,10.000000,,2013-04-08 03:05:00,
2013-04-07 20:36:00,42.0,41.0,-100.00,SW,223,3.0,11.0,95,0.10,,,1.06,2.000000,,2013-04-08 03:36:00,
2013-04-07 20:48:00,42.0,41.0,-100.00,SW,223,3.0,11.0,95,0.10,,,1.06,2.000000,,2013-04-08 03:48:00,
2013-04-07 20:55:00,42.0,41.0,-100.00,SW,223,3.0,11.0,95,0.10,,,1.06,2.000000,,2013-04-08 03:55:00,
2013-04-07 21:02:00,42.0,41.0,-100.00,SW,223,3.0,11.0,95,0.10,,,1.06,2.000000,,2013-04-08 04:02:00,
2013-04-07 21:34:00,43.0,41.0,-100.00,SW,225,4.0,9.0,92,0.01,,,1.01,1.000000,,2013-04-08 04:34:00,
2013-04-07 21:44:00,43.0,41.0,-100.00,SW,225,4.0,9.0,92,0.01,,,1.01,1.000000,,2013-04-08 04:44:00,
2013-04-07 21:52:00,43.0,41.0,-100.00,SW,225,4.0,9.0,92,0.01,,,1.01,1.000000,,2013-04-08 04:52:00,
2013-04-07 22:02:00,43.0,41.0,-100.00,SW,225,4.0,9.0,92,0.01,,,1.01,1.000000,,2013-04-08 05:02:00,
2013-04-07 22:42:00,42.0,41.0,-100.00,SSW,207,3.0,9.0,96,0.01,,,0.99,1.000000,,2013-04-08 05:42:00,
2013-04-07 22:52:00,42.0,41.0,-100.00,SSW,207,3.0,9.0,96,0.01,,,0.99,1.000000,,2013-04-08 05:52:00,
2013-04-07 23:02:00,42.0,41.0,-100.00,SSW,207,3.0,9.0,96,0.01,,,0.99,1.000000,,2013-04-08 06:02:00,
2013-04-07 23:32:00,42.0,40.0,-100.00,SSW,212,4.0,11.0,91,0.00,,,0.95,1.000000,,2013-04-08 06:32:00,
2013-04-07 23:43:00,42.0,40.0,-100.00,SSW,212,4.0,11.0,91,0.00,,,0.95,1.000000,,2013-04-08 06:43:00,
2013-04-07 23:52:00,42.0,40.0,-100.00,SSW,212,4.0,11.0,91,0.00,,,0.95,1.000000,,2013-04-08 06:52:00,